Location: Asheville, NC
(35.6000°N, 82.5500°W)
Time: 05:24:43
(UTC-05:00)

Vanguard 2 - Pass Details

Date: 12 February 2018
Orbit: 553 x 2939 km, 32.9° (Epoch: 17 February)

Event Time Altitude Azimuth Distance (km) Brightness Sun altitude
Rises 21:54:31 0° 258° (WSW) 3,531 11.5 -45.9°
Enters shadow 21:56:38 - 256° (WSW) 2,667 10.8 -46.3°
Reaches altitude 10° 21:57:30 10° 255° (WSW) 2,316 - -46.5°
Maximum altitude 22:02:28 59° 176° (S) 707 - -47.4°
Drops below altitude 10° 22:06:23 10° 96° (E) 1,829 - -48.2°
Sets 22:08:30 0° 92° (E) 2,713 - -48.6°
